GW4833 Weather Reports


time (UTC)temp
F
wind
direction
speed
knots
gust
knots
rain 1hr
in
rain 24hr
in
rain mn
in
humidity
%
barometer
mb
20260510190600 83 212 0.0 2.6 0.00 0.00 0.00 30 1015.8
20260510190057 86 89 0.0 1.7 0.00 0.00 0.00 25 1015.5
20260510185554 87 265 1.7 1.7 0.00 0.00 0.00 30 1015.4
20260510185051 84 250 1.7 1.7 0.00 0.00 0.00 31 1015.5
20260510184548 85 41 0.9 1.7 0.00 0.00 0.00 30 1015.9
20260510184043 84 38 1.7 1.7 0.00 0.00 0.00 29 1015.7
20260510183539 84 235 2.6 2.6 0.00 0.00 0.00 34 1015.8
20260510183034 82 267 3.5 5.2 0.00 0.00 0.00 30 1015.7
20260510182531 81 329 1.7 7.8 0.00 0.00 0.00 29 1015.5
20260510182026 81 354 4.3 4.3 0.00 0.00 0.00 29 1015.7
20260510181525 82 204 0.9 3.5 0.00 0.00 0.00 33 1016.0
20260510181020 81 288 3.5 7.0 0.00 0.00 0.00 30 1016.0
20260510180518 85 167 0.0 0.9 0.00 0.00 0.00 32 1015.8
20260510180015 82 290 0.9 1.7 0.00 0.00 0.00 36 1016.1
20260510175510 82 307 1.7 2.6 0.00 0.00 0.00 32 1015.9
20260510175006 82 19 1.7 1.7 0.00 0.00 0.00 29 1016.2
20260510174504 82 294 0.9 4.3 0.00 0.00 0.00 27 1016.2
20260510174001 82 281 1.7 3.5 0.00 0.00 0.00 30 1016.2
20260510173457 82 285 5.2 6.1 0.00 0.00 0.00 29 1016.1
20260510172954 84 252 1.7 2.6 0.00 0.00 0.00 34 1016.2
20260510172449 83 125 0.9 1.7 0.00 0.00 0.00 34 1016.2
20260510171946 80 262 3.5 4.3 0.00 0.00 0.00 31 1016.3
20260510171443 79 233 1.7 6.1 0.00 0.00 0.00 31 1016.4
20260510170939 82 17 2.6 3.5 0.00 0.00 0.00 31 1016.3
20260510170436 80 327 1.7 2.6 0.00 0.00 0.00 35 1016.4
20260510165932 80 59 3.5 3.5 0.00 0.00 0.00 33 1016.3
20260510165428 80 258 0.0 1.7 0.00 0.00 0.00 34 1016.4
20260510164925 81 266 1.7 5.2 0.00 0.00 0.00 33 1016.1
20260510164417 80 322 0.9 1.7 0.00 0.00 0.00 34 1016.3
20260510163916 79 59 2.6 4.3 0.00 0.00 0.00 33 1016.3
20260510163413 79 258 1.7 5.2 0.00 0.00 0.00 36 1016.4
20260510162907 78 243 5.2 5.2 0.00 0.00 0.00 35 1016.4
20260510162405 80 206 4.3 4.3 0.00 0.00 0.00 30 1016.3
20260510161900 80 255 0.0 1.7 0.00 0.00 0.00 42 1016.5
20260510161356 79 247 1.7 2.6 0.00 0.00 0.00 36 1016.4
20260510160854 79 31 2.6 4.3 0.00 0.00 0.00 35 1016.4
20260510160351 78 248 1.7 3.5 0.00 0.00 0.00 41 1016.6
20260510155849 79 240 1.7 5.2 0.00 0.00 0.00 37 1016.4
20260510155347 78 350 1.7 3.5 0.00 0.00 0.00 40 1016.4
20260510154843 78 106 0.9 7.0 0.00 0.00 0.00 38 1016.5
20260510154339 79 58 1.7 3.5 0.00 0.00 0.00 38 1016.5
20260510153834 79 51 1.7 3.5 0.00 0.00 0.00 42 1016.7
20260510153330 78 226 0.9 5.2 0.00 0.00 0.00 38 1016.4
20260510152827 78 214 2.6 4.3 0.00 0.00 0.00 37 1016.4
20260510152324 76 261 0.9 3.5 0.00 0.00 0.00 42 1016.4
20260510151820 75 225 3.5 3.5 0.00 0.00 0.00 41 1016.6
20260510151318 78 286 2.6 2.6 0.00 0.00 0.00 47 1016.3
20260510150813 76 126 0.0 1.7 0.00 0.00 0.00 42 1016.6
20260510150309 75 254 1.7 5.2 0.00 0.00 0.00 43 1016.5
20260510145805 78 115 2.6 3.5 0.00 0.00 0.00 42 1016.6
20260510145305 75 180 1.7 2.6 0.00 0.00 0.00 43 1016.5
20260510144758 74 255 4.3 7.8 0.00 0.00 0.00 47 1016.5
20260510144255 78 156 0.9 1.7 0.00 0.00 0.00 52 1016.6
20260510143749 74 241 6.1 7.8 0.00 0.00 0.00 48 1016.5
20260510143246 73 216 1.7 3.5 0.00 0.00 0.00 52 1016.5
20260510142742 73 311 1.7 4.3 0.00 0.00 0.00 57 1016.6
20260510142239 73 228 4.3 4.3 0.00 0.00 0.00 53 1016.6
20260510141736 72 234 6.1 6.1 0.00 0.00 0.00 56 1016.5
20260510141235 72 256 5.2 5.2 0.00 0.00 0.00 58 1016.5
20260510140731 71 240 4.3 4.3 0.00 0.00 0.00 62 1016.6
20260510140231 70 237 0.0 6.1 0.00 0.00 0.00 64 1016.7
20260510135726 71 269 0.9 4.3 0.00 0.00 0.00 63 1016.4
20260510135222 71 84 0.0 4.3 0.00 0.00 0.00 63 1016.6
20260510134719 70 249 0.0 3.5 0.00 0.00 0.00 63 1016.4
20260510134217 69 218 4.3 7.8 0.00 0.00 0.00 65 1016.4
20260510133712 69 260 2.6 7.8 0.00 0.00 0.00 67 1016.3
20260510133208 69 225 1.7 3.5 0.00 0.00 0.00 70 1016.3
20260510132659 69 251 6.1 6.1 0.00 0.00 0.00 72 1016.4
20260510132156 68 234 5.2 5.2 0.00 0.00 0.00 76 1016.5
20260510131654 68 126 0.0 5.2 0.00 0.00 0.00 76 1016.4
20260510131151 67 235 2.6 5.2 0.00 0.00 0.00 78 1016.5
20260510130648 66 287 0.9 2.6 0.00 0.00 0.00 82 1016.4
20260510130145 66 236 0.9 4.3 0.00 0.00 0.00 85 1016.4
20260510125640 64 290 1.7 3.5 0.00 0.00 0.00 90 1016.7
20260510125137 63 243 3.5 3.5 0.00 0.00 0.00 92 1016.4
20260510124635 62 226 1.7 3.5 0.00 0.00 0.00 94 1016.2
20260510124131 61 289 0.9 3.5 0.00 0.00 0.00 98 1016.3
20260510123627 60 262 0.9 2.6 0.00 0.00 0.00 99 1016.1
20260510123123 60 267 1.7 1.7 0.00 0.00 0.00 99 1015.9
20260510122619 60 233 2.6 3.5 0.00 0.00 0.00 99 1015.9
20260510122114 60 272 1.7 2.6 0.00 0.00 0.00 99 1015.8
20260510121611 60 255 0.9 1.7 0.00 0.00 0.00 99 1015.5
20260510121108 59 243 2.6 3.5 0.00 0.00 0.00 99 1015.5
20260510120607 59 37 0.0 0.0 0.00 0.00 0.00 99 1015.1
20260510115558 58 224 0.0 0.0 0.00 0.00 0.00 99 1015.1
20260510115056 57 216 0.0 1.7 0.00 0.00 0.00 99 1015.4
20260510114552 56 235 0.0 0.9 0.00 0.00 0.00 99 1015.1
20260510114048 56 247 1.7 1.7 0.00 0.00 0.00 99 1014.9
20260510113544 56 266 0.9 1.7 0.00 0.00 0.00 99 1015.1
20260510113041 55 218 0.9 1.7 0.00 0.00 0.00 99 1014.9
20260510112538 55 249 1.7 1.7 0.00 0.00 0.00 99 1015.0
20260510112034 55 256 0.9 1.7 0.00 0.00 0.00 99 1015.0
20260510111531 55 251 0.9 1.7 0.00 0.00 0.00 99 1014.6
20260510111027 55 248 1.7 1.7 0.00 0.00 0.00 99 1014.7
20260510110523 55 248 0.9 0.9 0.00 0.00 0.00 99 1014.6
20260510110020 55 309 0.0 0.0 0.00 0.00 0.00 99 1014.4
20260510105515 54 235 0.0 0.0 0.00 0.00 0.00 99 1014.4
20260510105010 55 235 0.0 0.0 0.00 0.00 0.00 99 1014.4
20260510104507 54 230 0.0 0.0 0.00 0.00 0.00 99 1014.1
20260510104003 55 230 0.0 0.0 0.00 0.00 0.00 99 1014.2
20260510103501 55 230 0.0 0.0 0.00 0.00 0.00 99 1013.9
20260510102955 55 309 0.0 0.9 0.00 0.00 0.00 99 1014.0
20260510102452 55 278 0.9 0.9 0.00 0.00 0.00 99 1013.9
20260510101948 55 306 0.9 0.9 0.00 0.00 0.00 99 1013.9
20260510101446 55 50 0.0 0.9 0.00 0.00 0.00 99 1013.8
20260510100945 55 269 0.0 1.7 0.00 0.00 0.00 99 1013.5
20260510100440 55 288 1.7 1.7 0.00 0.00 0.00 99 1013.6
20260510095937 55 222 0.9 1.7 0.00 0.00 0.00 99 1013.6
20260510095432 55 230 0.0 0.9 0.00 0.00 0.00 99 1013.4
20260510094932 55 287 1.7 1.7 0.00 0.00 0.00 99 1013.4
20260510094426 55 290 1.7 1.7 0.00 0.00 0.00 99 1013.5
20260510093923 55 283 0.0 0.9 0.00 0.00 0.00 99 1013.6
20260510093418 55 263 0.0 1.7 0.00 0.00 0.00 99 1013.6
20260510092915 55 286 0.0 1.7 0.00 0.00 0.00 99 1013.6
20260510092407 55 274 0.9 0.9 0.00 0.00 0.00 99 1013.3
20260510091906 55 292 0.0 1.7 0.00 0.00 0.00 99 1013.4
20260510091404 55 310 0.0 1.7 0.00 0.00 0.00 99 1013.4
20260510090901 55 290 0.0 0.9 0.00 0.00 0.00 99 1013.3
20260510090357 55 261 0.9 1.7 0.00 0.00 0.00 99 1013.2
20260510085853 55 278 0.9 1.7 0.00 0.00 0.00 99 1013.3
20260510085348 55 291 0.9 0.9 0.00 0.00 0.00 99 1013.2
20260510084843 55 303 0.9 1.7 0.00 0.00 0.00 99 1013.2
20260510084341 55 301 0.9 1.7 0.00 0.00 0.00 99 1013.2
20260510083837 55 294 0.0 0.9 0.00 0.00 0.00 99 1013.1
20260510083334 55 50 0.0 0.0 0.00 0.00 0.00 99 1013.2
20260510082829 55 55 0.9 0.9 0.00 0.00 0.00 99 1013.3
20260510082327 55 55 0.0 0.0 0.00 0.00 0.00 99 1013.2
20260510081826 55 230 0.0 0.0 0.00 0.00 0.00 99 1013.0
20260510081322 56 230 0.0 0.0 0.00 0.00 0.00 99 1012.6
20260510080818 55 233 0.0 0.0 0.00 0.00 0.00 99 1012.7
20260510080313 55 309 0.0 0.0 0.00 0.00 0.00 99 1012.6
20260510075810 55 309 0.0 0.0 0.00 0.00 0.00 99 1012.7
20260510075308 56 309 0.0 0.0 0.00 0.00 0.00 99 1012.6
20260510074804 56 230 0.0 0.0 0.00 0.00 0.00 99 1012.7
20260510074301 55 22 0.0 0.0 0.00 0.00 0.00 99 1012.7
20260510073757 56 22 0.0 0.0 0.00 0.00 0.00 99 1012.7
20260510073253 56 50 0.0 0.0 0.00 0.00 0.00 99 1012.6
20260510072749 56 69 0.0 0.0 0.00 0.00 0.00 99 1012.8
20260510072246 56 69 0.0 0.9 0.00 0.00 0.00 99 1012.7
20260510071742 56 100 0.9 0.9 0.00 0.00 0.00 99 1012.6
20260510071239 56 87 0.9 1.7 0.00 0.00 0.00 99 1012.7
20260510070738 56 59 0.9 0.9 0.00 0.00 0.00 99 1012.8
20260510070234 56 66 0.0 0.0 0.00 0.00 0.00 99 1012.5
20260510065729 56 66 0.0 0.0 0.00 0.00 0.00 99 1012.5
20260510065226 56 76 0.0 0.9 0.00 0.00 0.00 99 1012.4
20260510064722 57 130 0.0 0.9 0.00 0.00 0.00 99 1012.6
20260510064220 57 103 0.0 0.0 0.00 0.00 0.00 99 1012.7
20260510063717 57 78 1.7 1.7 0.00 0.00 0.00 99 1012.5
20260510063213 57 24 0.0 0.0 0.00 0.00 0.00 99 1012.6
20260510062709 57 322 0.0 0.0 0.00 0.00 0.00 99 1012.4
20260510062206 57 252 0.0 1.7 0.00 0.00 0.00 99 1012.6
20260510061700 57 315 0.0 0.0 0.00 0.00 0.00 99 1012.4
20260510061158 57 296 0.0 0.0 0.00 0.00 0.00 99 1012.7
20260510060654 57 304 0.0 0.0 0.00 0.00 0.00 99 1012.7
20260510060151 57 307 0.0 1.7 0.00 0.00 0.00 99 1012.7
20260510055647 57 296 0.0 0.9 0.00 0.00 0.00 99 1012.5
20260510055145 57 269 0.0 0.9 0.00 0.00 0.00 99 1012.6
20260510054641 57 32 0.0 0.0 0.00 0.00 0.00 99 1012.6
20260510054137 57 32 0.0 0.0 0.00 0.00 0.00 99 1012.6
20260510053636 57 230 0.0 0.9 0.00 0.00 0.00 99 1012.7
20260510053133 57 309 0.0 0.0 0.00 0.00 0.00 99 1012.8
20260510052629 57 309 0.0 0.0 0.00 0.00 0.00 99 1012.8
20260510052125 57 257 0.0 0.9 0.00 0.00 0.00 99 1012.7
20260510051620 57 60 0.0 0.0 0.00 0.00 0.00 99 1012.9
20260510051118 58 60 0.0 0.9 0.00 0.00 0.00 99 1012.9
20260510050615 58 66 0.0 0.0 0.00 0.00 0.00 99 1013.0
20260510050112 58 50 0.9 0.9 0.00 0.00 0.00 99 1013.1
20260510045609 58 82 0.9 1.7 0.00 0.00 0.00 99 1012.9
20260510045105 58 69 0.0 0.9 0.00 0.00 0.00 99 1013.1
20260510044602 58 309 0.0 0.0 0.00 0.00 0.00 99 1012.9
20260510044059 58 297 0.0 0.0 0.00 0.00 0.00 99 1013.1
20260510043555 58 269 0.9 1.7 0.00 0.00 0.00 99 1013.1
20260510043051 58 290 0.0 0.9 0.00 0.00 0.00 99 1013.0
20260510042550 58 50 0.0 1.7 0.00 0.00 0.00 99 1013.1
20260510042045 58 77 0.9 1.7 0.00 0.00 0.00 99 1013.0
20260510041543 59 114 0.9 1.7 0.00 0.00 0.00 99 1013.0
20260510041040 59 103 0.0 1.7 0.00 0.00 0.00 99 1013.1
20260510040537 59 103 0.0 1.7 0.00 0.00 0.00 99 1013.0
20260510040032 59 75 0.9 1.7 0.00 0.00 0.00 99 1012.9
20260510035529 59 89 0.0 0.9 0.00 0.00 0.00 99 1013.0
20260510035028 59 57 0.9 0.9 0.00 0.00 0.00 99 1013.0
20260510034527 59 217 0.0 1.7 0.00 0.00 0.00 99 1013.1
20260510034023 59 242 0.0 1.7 0.00 0.00 0.00 99 1013.0
20260510033519 59 22 0.0 0.9 0.00 0.00 0.00 99 1012.9
20260510033018 59 145 0.0 0.9 0.00 0.00 0.00 99 1012.9
20260510032514 59 113 0.0 0.0 0.00 0.00 0.00 99 1012.9
20260510032009 59 309 0.0 0.0 0.00 0.00 0.00 99 1012.9
20260510031504 59 240 0.0 0.0 0.00 0.00 0.00 99 1013.0
20260510031000 59 269 0.0 1.7 0.00 0.00 0.00 99 1013.0
20260510030455 59 60 0.0 0.0 0.00 0.00 0.00 99 1012.8
20260510025953 59 30 0.0 0.9 0.00 0.00 0.00 99 1012.9
20260510025450 59 142 0.0 0.0 0.00 0.00 0.00 99 1013.0
20260510024947 59 89 0.0 0.9 0.00 0.00 0.00 99 1012.9
20260510024443 59 89 0.0 1.7 0.00 0.00 0.00 99 1013.0
20260510023939 59 83 0.9 0.9 0.00 0.00 0.00 99 1013.0
20260510023436 59 80 0.0 0.9 0.00 0.00 0.00 99 1012.9
20260510022933 59 82 0.9 0.9 0.00 0.00 0.00 98 1012.8
20260510022432 60 37 0.0 0.9 0.00 0.00 0.00 98 1012.8
20260510021931 60 44 0.0 0.9 0.00 0.00 0.00 98 1012.7
20260510021430 60 124 0.0 0.9 0.00 0.00 0.00 98 1012.6
20260510020927 60 217 0.0 0.0 0.00 0.00 0.00 98 1012.8
20260510020426 60 217 0.0 0.0 0.00 0.00 0.00 98 1012.6
20260510015922 60 224 0.0 0.0 0.00 0.00 0.00 98 1012.8
20260510015418 60 229 0.9 1.7 0.00 0.00 0.00 97 1012.6
20260510014913 60 218 0.0 0.9 0.00 0.00 0.00 97 1012.6
20260510014412 60 73 0.0 0.0 0.00 0.00 0.00 97 1012.4
20260510013908 60 224 0.0 0.0 0.00 0.00 0.00 96 1012.6
20260510013403 61 224 0.0 0.0 0.00 0.00 0.00 96 1012.3
20260510012858 61 124 0.0 0.0 0.00 0.00 0.00 95 1012.3
20260510012353 61 224 0.0 0.0 0.00 0.00 0.00 95 1012.2
20260510011848 61 224 0.0 0.0 0.00 0.00 0.00 95 1012.2
20260510011344 61 269 0.0 0.9 0.00 0.00 0.00 95 1012.2
20260510010840 62 267 0.9 1.7 0.00 0.00 0.00 95 1012.2
20260510010338 62 262 0.9 1.7 0.00 0.00 0.00 94 1012.0
20260510005834 62 244 0.0 0.0 0.00 0.00 0.00 93 1011.7
20260510005330 62 240 0.0 0.0 0.00 0.00 0.00 93 1011.4
20260510004828 62 13 0.0 0.9 0.00 0.00 0.00 92 1011.4
20260510004326 62 142 0.0 0.9 0.00 0.00 0.00 92 1011.7
20260510003823 63 224 0.0 0.0 0.00 0.00 0.00 91 1011.4
20260510003320 63 217 0.0 0.9 0.00 0.00 0.00 90 1011.3
20260510002818 63 224 0.0 0.0 0.00 0.00 0.00 90 1011.3
20260510002316 64 246 0.0 0.9 0.00 0.00 0.00 89 1011.4
20260510001812 64 269 0.0 0.0 0.00 0.00 0.00 88 1011.2
20260510001311 65 229 0.0 0.0 0.00 0.00 0.00 87 1010.9
20260510000806 65 329 0.0 0.0 0.00 0.00 0.00 86 1011.1
20260510000304 66 55 0.0 0.0 0.00 0.00 0.00 85 1011.1
20260509235801 66 89 0.0 0.0 0.00 0.00 0.00 84 1010.9
20260509235257 67 89 0.0 0.0 0.00 0.00 0.00 83 1011.1
20260509234753 67 80 0.0 1.7 0.00 0.00 0.00 83 1011.0
20260509234250 67 63 0.0 1.7 0.00 0.00 0.00 82 1010.8
20260509233748 68 157 0.0 1.7 0.00 0.00 0.00 82 1010.9
20260509233246 68 107 0.9 1.7 0.00 0.00 0.00 82 1011.0
20260509232741 68 3 0.9 0.9 0.00 0.00 0.00 81 1010.9
20260509232239 69 22 0.0 0.0 0.00 0.00 0.00 81 1010.8
20260509231735 69 205 0.0 3.5 0.00 0.00 0.00 80 1010.6
20260509231232 69 7 1.7 1.7 0.00 0.00 0.00 80 1010.4
20260509230730 69 142 0.0 1.7 0.00 0.00 0.00 80 1010.5
20260509230227 71 96 0.0 1.7 0.00 0.00 0.00 78 1010.6
20260509225721 71 315 1.7 2.6 0.00 0.00 0.00 75 1010.7
20260509225218 71 340 3.5 4.3 0.00 0.00 0.00 74 1010.6
20260509224714 72 326 3.5 3.5 0.00 0.00 0.00 73 1010.4
20260509224211 74 235 0.0 1.7 0.00 0.00 0.00 71 1010.5
20260509223708 74 42 0.0 2.6 0.00 0.00 0.00 72 1010.4
20260509223205 73 0 0.0 1.7 0.00 0.00 0.00 73 1010.5
20260509222701 73 291 1.7 6.1 0.00 0.00 0.00 74 1010.5
20260509222157 73 287 0.9 2.6 0.00 0.00 0.00 74 1010.3
20260509221653 74 2 0.9 6.1 0.00 0.00 0.00 69 1010.3
20260509221149 74 308 0.0 4.3 0.00 0.00 0.00 69 1010.4
20260509220645 74 321 1.7 2.6 0.00 0.00 0.00 69 1010.4
20260509220142 75 358 0.9 1.7 0.00 0.00 0.00 70 1010.3
20260509215638 76 316 2.6 3.5 0.00 0.00 0.00 65 1010.1
20260509215134 74 355 1.7 1.7 0.00 0.00 0.00 68 1010.4
20260509214632 72 266 1.7 5.2 0.00 0.00 0.00 74 1010.6
20260509214128 73 31 0.9 2.6 0.00 0.00 0.00 74 1010.3
20260509213625 74 314 3.5 6.1 0.00 0.00 0.00 68 1010.5
20260509213121 76 323 0.9 5.2 0.00 0.00 0.00 66 1010.4
20260509212619 76 234 0.0 2.6 0.00 0.00 0.00 64 1010.2
20260509212115 75 161 0.0 3.5 0.00 0.00 0.00 69 1010.2
20260509211611 76 152 0.0 1.7 0.00 0.00 0.00 66 1010.3
20260509211108 76 277 1.7 2.6 0.00 0.00 0.00 68 1010.4
20260509210605 77 324 0.9 7.0 0.00 0.00 0.00 65 1010.2
20260509205555 74 280 1.7 2.6 0.00 0.00 0.00 71 1010.1
20260509205051 73 32 0.0 5.2 0.00 0.00 0.00 72 1010.0
20260509204547 73 298 4.3 7.0 0.00 0.00 0.00 66 1009.8
20260509204044 73 335 1.7 5.2 0.00 0.00 0.00 68 1010.1
20260509203540 73 278 3.5 4.3 0.00 0.00 0.00 69 1010.1
20260509203039 74 217 0.0 7.8 0.00 0.00 0.00 69 1010.2
20260509202539 73 241 1.7 6.1 0.00 0.00 0.00 69 1010.3
20260509202034 73 297 0.0 4.3 0.00 0.00 0.00 70 1010.1
20260509201529 74 351 2.6 2.6 0.00 0.00 0.00 68 1010.1
20260509201028 73 106 0.0 1.7 0.00 0.00 0.00 75 1010.2
20260509200527 74 336 0.0 1.7 0.00 0.00 0.00 72 1010.3
20260509200024 73 318 1.7 4.3 0.00 0.00 0.00 71 1010.3
20260509195519 72 302 0.9 7.8 0.00 0.00 0.00 73 1010.3
20260509195020 73 291 0.9 5.2 0.00 0.00 0.00 71 1010.5
20260509194515 73 244 7.8 8.7 0.00 0.00 0.00 70 1010.4
20260509194013 74 290 2.6 5.2 0.00 0.00 0.00 71 1010.2
20260509193512 72 315 0.0 3.5 0.00 0.00 0.00 75 1010.6
20260509193009 73 243 1.7 3.5 0.00 0.00 0.00 75 1010.6
20260509192505 70 335 5.2 7.8 0.00 0.00 0.00 74 1010.8
20260509192000 69 235 0.0 4.3 0.00 0.00 0.00 80 1010.8
20260509191455 69 337 0.0 5.2 0.00 0.00 0.00 78 1010.9
20260509190951 69 253 1.7 2.6 0.00 0.00 0.00 79 1010.9